Regional Weather Roundup
Issued by NWS

Home | Current Version | Previous Version | Graphics & Text | Print | Product List | Glossary On
Versions: 1 2 3 4 5 6 7 8 9 10 11 12 13 14 15 16 17 18 19 20 21 22 23 24 25 26 27
000
ASUS45 KTFX 211310
RWRMT
MONTANA REGIONAL WEATHER ROUNDUP
NATIONAL WEATHER SERVICE GREAT FALLS MT
700 AM MDT THU SEP 21 2017

NOTE: "FAIR" INDICATES FEW OR NO CLOUDS BELOW 12000 FEET WITH NO
SIGNIFICANT WEATHER AND/OR OBSTRUCTIONS TO VISIBILITY.

MTZ001>007-043-211400-
WEST OF THE DIVIDE

CITY           SKY/WX    TMP DP  RH WIND       PRES   REMARKS
KALISPELL      MOCLDY    40  38  93 CALM      29.79R
MISSOULA       CLOUDY    40  39  97 CALM      29.82R
BUTTE          CLOUDY    33  31  92 CALM      29.80F
MULLAN PASS    CLOUDY    29  27  92 NW3       29.77R FOG
ANACONDA         N/A     34  27  75 S5        29.80F
DEER LODGE       N/A     30  28  93 W3        29.82S
EUREKA           N/A     45  37  76 CALM      29.79R
HAMILTON         N/A     37  34  87 SW5       29.80F
LIBBY            N/A     32  32 100 CALM      29.80S
$$

MTZ008-052>055-211400-
SOUTHWEST MONTANA

CITY           SKY/WX    TMP DP  RH WIND       PRES   REMARKS
BOZEMAN        CLOUDY    43  41  93 CALM      29.78R
DILLON         CLOUDY    36  33  89 CALM      29.78R
W YELLOWSTONE  LGT SNOW  32  32 100 MISG      29.78R
ENNIS          MIX PCPN  39  37  93 N5        29.82S
THREE FORKS      N/A     40  36  86 CALM      29.80S
$$

MTZ009-010-012-014-046-048-049-054-211400-
EAST SLOPES AND CENTRAL MONTANA

CITY           SKY/WX    TMP DP  RH WIND       PRES   REMARKS
CUT BANK       CLEAR     26  25  96 NW5       29.77R
GREAT FALLS    CLOUDY    37  29  72 SW9       29.76R WCI  30
MALMSTROM AFB  CLOUDY    41  31  67 NW5       29.78R
HELENA         CLOUDY    39  32  76 SE5       29.79R
BOWMANS CRNR   MOCLDY    36  28  75 S12       29.74F WCI  27
CHOTEAU          N/A     36  28  75 NE3       29.79R
FAIRFIELD        N/A     36  27  68 N8        29.77R WCI  30
POWER            N/A     30  28  92 CALM      29.77R
RAYNESFORD     MOCLDY    43  26  51 CALM      29.78R
ULM            MOCLDY    39  30  72 S7        29.77R
$$

MTZ011-013-016-021-045-047-050-051-211400-
NORTH CENTRAL MONTANA

CITY           SKY/WX    TMP DP  RH WIND       PRES   REMARKS
HAVRE          PTCLDY    38  33  82 CALM      29.76R
LEWISTOWN      CLOUDY    40  32  73 VRB3      29.77R
N BAR RANCH      N/A     43  25  49 CALM      29.78S
CHINOOK          N/A     39  34  81 W8        29.76R
DENTON           N/A     41  31  66 W10       29.73R
GEYSER         MOCLDY    39  28  65 W7        29.77R
GRASS RANGE    MOCLDY    42  32  67 W7        29.73R
JUDITH GAP     MOCLDY    38  31  76 N9        29.76R WCI  32
WINIFRED       MOCLDY    42  31  67 W5        29.76R
$$

MTZ017>020-022>027-061-062-211400-
NORTHEAST MONTANA

CITY           SKY/WX    TMP DP  RH WIND       PRES   REMARKS
GLASGOW        CLOUDY    44  37  76 W5        29.70R
JORDAN           N/A     48  38  68 W5        29.72S
SIDNEY         LGT RAIN  52  39  61 W7        29.69R
WOLF POINT     CLOUDY    51  39  63 W12       29.69R
MALTA          CLEAR     41  32  70 W8        29.73R
POPLAR           N/A     48  39  71 W6        29.69R
$$

MTZ028>42-056>058-211400-
SOUTHCENTRAL AND SOUTHEAST MONTANA

CITY           SKY/WX    TMP DP  RH WIND       PRES   REMARKS
BAKER          CLOUDY    53  36  52 W12       29.69R
BILLINGS       LGT RAIN  46  45  96 NE6       29.76S
LIVINGSTON     CLOUDY    41  39  93 NW7       29.76S
MILES CITY     LGT RAIN  49  42  77 NW10      29.71S
BIG TIMBER     CLOUDY    43  37  81 W10       29.78R
HARLOWTON      MOCLDY    42  29  59 MISG      29.76R
LAUREL           N/A     46  45  93 NE7       29.77R
$$

REGIONAL REPORTS...DAKOTAS

CITY           SKY/WX    TMP DP  RH WIND       PRES   REMARKS
WILLISTON      CLOUDY    48  41  76 CALM      29.67S
MINOT          CLOUDY    54  43  66 N5        29.66R
DICKINSON      PTCLDY    53  42  66 CALM      29.64R
BEACH          MOCLDY    54  34  47 NW16      29.70R
CROSBY           N/A     48  39  71 SW6       29.66S
BISMARCK       PTCLDY    59  46  62 SE17      29.68F
GRAND FORKS    CLOUDY    58  49  72 S17G25    29.80F
FARGO          PTCLDY    56  48  74 S16G25    29.85F
BUFFALO SD       N/A     58  39  49 N6        29.60R
RAPID CITY     CLEAR     54  37  54 S12       29.66S
$$

REGIONAL REPORTS...WYOMING/IDAHO/WASHINGTON

CITY           SKY/WX    TMP DP  RH WIND       PRES   REMARKS
GILLETTE       CLEAR     44  37  76 N6        29.69R
SHERIDAN       MOCLDY    49  41  74 W13       29.75R
BUFFALO WY     CLEAR     46  35  65 NW10      29.75R
CODY           LGT RAIN  42  41  96 N6        29.75R
IDAHO FALLS    LGT RAIN  40  39  97 SW6       29.79R
SALMON         CLOUDY    38  36  92 CALM      29.81S
BOISE          CLOUDY    47  45  93 W5        29.80R
SPOKANE        LGT RAIN  42  41  96 S3        29.81S
$$

REGIONAL REPORTS...ALBERTA

CITY           SKY/WX    TMP DP  RH WIND       PRES   REMARKS
EDMONTON       LGT RAIN  37  36  93 N9        29.72R WCI  31
CALGARY        LGT RAIN  36  32  87 W13G22    29.75R FOG     WCI  27
LETHBRIDGE     CLOUDY    39  32  75 SW2G23    29.77R
MEDICINE HAT   MOCLDY    39  34  81 W8        29.74R
$$

REGIONAL REPORTS...SASKATCHEWAN

CITY           SKY/WX    TMP DP  RH WIND       PRES   REMARKS
SWIFT CURRENT  CLEAR     34  30  86 W15G21    29.68R WCI  24
REGINA         MOCLDY    34  30  86 SW5       29.67R
SASKATOON      PTCLDY    32  32 100 SW10      29.62R WCI  24
$$




USA.gov is the U.S. government's official web portal to all federal, state and local government web resources and services.